RH
3 3 4 4 4 5 5 6 7 7 8 9 10 10 10 9 9 9 9 9 9 9 8 7 7 6 7 7 7 8 9 12 14 21 26 28 31 26 23 25 26 27 26 25 22 19 18 14 12 11 10 10 10 10 9 8 8 8 7 7 7 8 9 10 9 6 5 5 6 7 7 9 15 18 18 21 33 45 50 52 45 37 44 58 66 68 66 58 46 33 18 9 6 5 5 5 5
3 4 4 4 4 5 5 5 6 7 8 9 10 10 9 9 9 9 8 8 8 9 8 7 7 7 7 7 8 8 8 10 11 15 20 24 27 25 25 29 31 30 29 27 23 22 21 16 12 11 10 9 8 8 7 7 8 7 7 7 7 8 9 8 7 6 5 5 5 6 8 10 16 17 16 18 30 47 56 57 54 45 45 56 66 71 75 69 55 39 21 9 6 6 5 5 5
4 4 4 5 5 5 5 5 6 7 8 9 10 9 8 9 8 8 8 8 8 7 8 7 7 8 7 8 8 9 12 14 12 13 15 17 24 28 29 32 32 31 30 27 24 25 24 19 14 10 11 10 8 7 7 7 7 7 7 7 7 9 8 7 6 5 4 5 5 6 8 11 15 14 12 15 25 44 57 58 58 53 46 52 63 72 79 77 67 50 27 10 6 6 5 4 5
4 5 5 5 5 5 5 6 6 7 7 9 11 9 8 9 8 7 8 8 8 8 8 7 7 8 8 9 9 10 15 18 16 16 19 20 25 30 32 33 32 31 30 26 24 25 25 20 15 12 11 10 9 7 7 8 7 8 7 7 8 9 8 6 5 4 4 4 5 6 7 10 13 11 11 15 20 36 56 59 56 56 51 48 56 69 79 81 77 63 37 14 7 6 5 4 4
5 5 5 5 5 6 5 6 6 7 8 8 10 9 8 9 8 7 7 8 8 8 8 8 8 8 9 11 11 12 15 19 20 21 26 27 29 31 33 33 33 32 29 26 24 25 23 19 14 12 12 11 10 8 8 9 8 8 8 7 8 8 7 6 5 4 4 5 5 6 7 11 11 11 15 18 17 28 51 61 56 54 53 50 51 60 73 81 82 74 49 20 9 6 5 5 4
6 6 6 6 6 6 5 6 6 8 8 8 9 8 8 9 8 7 7 8 8 9 8 8 9 9 10 12 13 16 19 23 26 27 29 32 32 34 35 34 34 32 29 27 26 25 22 17 12 11 12 12 11 8 8 8 8 10 9 7 8 7 6 5 5 4 4 5 5 6 8 11 11 13 19 23 22 22 37 53 56 54 53 52 50 52 64 80 84 82 62 27 11 7 5 5 4
6 6 7 6 6 6 6 6 7 8 8 7 9 8 8 9 8 8 8 8 8 9 9 9 8 9 13 15 17 20 23 27 31 32 34 35 36 38 37 36 35 32 29 28 27 25 20 16 13 12 13 13 11 9 8 7 9 12 9 8 8 7 6 6 5 5 5 4 5 7 8 10 11 13 21 28 30 28 28 36 45 49 51 51 49 50 58 77 86 85 73 38 14 9 6 5 4
7 7 8 7 7 7 7 7 7 8 8 8 8 8 8 7 7 8 9 9 10 10 9 10 8 10 18 22 25 27 29 31 33 36 38 41 41 41 39 37 35 33 31 29 28 23 17 16 15 14 14 14 11 8 7 7 12 13 9 9 9 7 6 6 5 4 4 4 4 6 7 10 10 12 20 28 33 35 36 34 34 38 45 51 49 48 54 72 87 88 82 53 22 11 7 4 4
8 8 8 8 8 8 7 7 8 8 8 8 8 8 7 7 7 8 9 10 12 13 10 10 9 11 20 27 31 32 36 37 38 40 41 43 44 42 39 38 36 34 33 30 26 21 18 17 16 15 14 13 11 8 7 7 11 11 8 10 9 7 7 6 5 5 4 3 4 5 7 9 9 10 16 24 30 36 42 38 31 32 37 46 49 47 50 65 84 89 87 68 32 12 8 5 4
8 9 9 9 8 8 8 9 8 9 9 9 9 8 7 7 7 7 10 10 11 15 12 9 9 10 17 30 39 37 39 42 44 46 45 46 44 42 39 37 36 33 32 30 25 21 20 19 17 16 13 13 11 9 7 8 10 9 9 11 10 7 7 6 5 4 3 3 4 6 7 8 9 8 10 14 20 23 27 22 19 29 34 40 48 48 47 59 78 87 88 76 44 17 8 6 4
9 10 9 9 9 9 10 10 8 9 11 10 9 7 6 6 7 8 9 11 12 14 14 11 9 9 12 24 40 42 42 43 45 49 49 49 46 43 39 36 35 35 35 31 24 22 22 20 18 15 13 12 10 9 8 11 12 9 11 12 9 7 7 7 5 5 4 4 5 6 7 8 9 9 9 7 9 10 10 9 13 31 38 39 49 49 47 56 72 83 86 80 56 27 10 6 5
11 11 10 10 10 11 10 10 10 10 12 13 11 7 6 6 8 9 9 11 12 13 14 13 10 11 9 15 29 36 40 43 45 50 51 50 47 41 37 38 40 40 38 31 25 24 23 19 16 15 13 11 10 9 10 16 12 8 14 14 11 10 10 10 8 6 5 6 6 7 8 9 9 8 7 6 8 10 10 10 21 44 46 39 48 51 48 54 67 77 81 79 64 37 14 6 6
13 12 12 12 11 11 11 12 11 12 15 15 11 7 7 8 8 9 10 11 12 14 17 15 12 11 10 13 19 25 32 39 46 52 53 51 46 42 42 45 46 42 36 30 26 24 21 18 15 15 14 11 10 8 16 29 20 13 20 20 16 17 20 23 21 17 12 9 8 9 10 10 10 8 7 8 9 12 14 13 27 50 48 37 47 53 49 53 63 72 75 73 66 45 20 9 6
15 14 15 14 12 13 12 14 13 14 19 16 11 8 7 8 9 10 10 12 14 14 18 18 14 13 14 15 16 20 26 34 45 50 51 50 47 48 50 49 45 38 33 29 26 23 20 17 15 15 15 13 12 9 16 28 23 20 25 23 19 20 25 31 32 29 21 15 13 13 13 11 10 9 9 9 9 11 13 17 31 46 41 35 46 54 53 52 57 66 72 68 62 51 29 12 6
17 17 18 16 14 15 15 16 16 18 21 15 11 10 9 9 11 12 11 13 14 14 17 18 15 15 18 23 22 23 28 35 45 50 50 53 55 54 52 47 42 37 33 29 25 23 20 17 14 15 17 15 13 12 12 14 15 17 20 19 18 18 20 23 28 31 29 26 23 19 18 18 16 14 14 14 17 17 17 23 35 43 38 34 44 53 54 54 57 62 68 68 59 52 37 16 7
19 19 20 19 17 18 18 19 18 20 21 14 12 13 11 11 12 14 14 13 14 15 17 16 17 15 20 36 39 35 41 49 54 56 57 60 59 54 49 44 40 36 31 27 24 23 20 17 15 13 14 14 13 13 12 10 9 11 13 14 13 14 14 15 22 28 32 35 31 26 24 24 23 24 21 22 25 23 23 28 39 47 43 41 46 51 53 58 66 66 66 66 54 50 47 20 5
21 21 21 21 21 21 21 22 22 22 20 14 14 15 13 13 13 15 16 14 16 17 17 16 18 20 23 32 42 49 56 61 63 63 63 62 58 51 47 42 38 35 30 27 25 25 24 21 18 15 12 11 11 11 11 10 8 8 9 10 9 11 12 16 23 23 27 31 31 31 29 27 30 28 20 24 32 27 24 26 34 47 49 47 48 49 51 57 69 74 69 65 50 49 59 30 5
22 23 23 24 24 24 24 23 23 21 19 16 15 15 15 15 14 16 16 17 17 17 18 17 17 28 35 27 31 56 67 69 73 71 67 61 55 49 44 41 37 34 30 27 28 28 28 26 22 18 14 11 9 8 9 8 8 8 7 9 9 9 11 18 22 17 16 20 26 32 29 29 36 33 21 26 34 28 27 26 26 38 45 44 43 45 47 51 67 79 74 70 56 50 69 44 6
22 23 23 25 25 26 25 24 23 22 20 18 16 17 17 17 16 17 17 19 19 18 19 17 17 22 36 40 42 59 73 78 81 75 68 60 53 48 44 43 38 34 31 29 30 30 29 28 24 20 16 13 10 7 9 9 8 9 7 7 9 9 9 13 17 15 14 18 28 32 23 20 28 29 24 24 24 22 24 24 20 27 38 41 40 41 42 45 60 80 81 78 64 46 65 57 14
21 21 23 24 25 25 25 23 23 22 21 20 18 19 19 19 19 18 19 20 19 20 18 18 19 14 27 52 59 69 82 83 79 71 64 58 53 50 47 44 39 34 31 31 32 32 30 28 24 19 15 13 11 8 8 9 9 9 8 7 8 9 9 9 12 14 19 23 26 27 23 17 16 18 21 21 19 22 24 19 14 14 24 33 37 37 39 41 49 72 86 89 78 45 47 55 24
19 20 21 23 24 24 24 23 22 21 21 21 20 21 21 21 20 20 20 20 20 20 19 16 17 22 38 55 60 73 83 77 73 67 60 58 55 53 49 44 39 33 31 33 34 31 29 26 20 15 13 12 11 8 7 7 8 9 8 7 7 7 7 8 10 13 16 16 17 23 25 17 12 13 17 18 18 23 23 15 11 9 11 17 23 26 29 35 41 58 79 95 95 64 43 47 32
18 19 20 21 22 22 21 20 19 19 20 20 21 22 22 22 21 22 21 21 22 19 21 20 17 28 47 60 68 80 83 74 71 68 64 63 60 56 50 43 37 33 33 35 34 27 25 23 15 10 9 10 10 8 6 6 7 8 7 7 7 6 7 7 11 19 17 10 11 17 18 14 12 13 16 15 13 15 16 13 11 11 9 9 12 15 18 24 33 44 63 86 100 89 62 53 50
18 18 18 19 20 20 19 18 18 18 20 20 21 22 22 23 23 23 22 22 22 19 25 31 26 22 30 52 74 83 81 77 74 73 73 70 66 60 49 42 37 37 38 37 32 25 21 18 12 9 8 9 9 7 6 6 6 7 7 7 7 7 8 8 12 18 15 10 10 12 14 14 13 14 15 11 10 12 12 13 13 12 12 12 11 12 15 17 24 34 47 66 88 101 83 69 69
17 18 18 18 18 19 18 18 19 19 20 20 21 24 23 24 24 23 23 21 20 21 29 39 39 31 34 55 72 77 78 79 80 79 78 73 67 59 49 45 43 42 41 35 30 24 19 15 10 8 7 7 6 6 6 6 6 6 7 7 8 9 10 10 11 11 10 11 11 14 17 15 13 15 15 11 11 12 12 14 14 14 14 14 13 13 15 15 17 25 36 49 67 93 95 80 74
17 17 17 17 18 18 18 18 19 20 20 20 21 23 22 23 23 22 22 22 20 20 29 42 49 49 60 72 72 76 82 84 85 83 78 72 65 58 53 49 47 45 38 31 29 24 18 13 9 8 7 6 6 6 6 6 6 7 6 7 8 9 9 8 9 9 10 11 11 20 25 17 14 16 15 14 12 11 13 14 13 17 19 19 22 20 16 14 15 20 30 42 52 76 96 86 69
16 16 16 16 16 16 17 18 19 20 19 20 21 21 22 22 21 22 21 21 22 21 27 45 59 67 82 89 83 85 90 89 87 82 77 72 65 61 56 51 47 40 29 23 21 20 17 11 8 9 7 6 6 7 7 7 6 6 6 7 8 7 8 8 8 9 9 11 15 24 28 19 15 17 17 17 14 13 15 14 14 16 19 21 25 30 30 23 18 16 21 35 45 65 94 94 66
14 14 14 14 15 15 15 17 17 18 19 20 20 20 20 20 21 27 26 23 26 28 34 48 61 71 86 96 96 95 94 91 86 81 77 71 66 62 55 50 42 28 18 15 15 17 16 10 8 9 8 6 6 6 7 6 6 6 6 7 8 8 8 8 8 9 9 13 16 18 21 18 18 20 19 18 17 18 19 20 25 25 26 31 35 44 55 51 35 25 24 31 40 50 76 98 77
11 11 12 12 13 13 14 15 16 17 17 18 19 19 20 20 22 30 30 30 35 38 45 55 62 68 79 90 96 97 94 89 84 79 75 68 64 59 52 45 30 17 14 17 19 17 14 9 8 9 8 7 6 6 6 6 6 5 7 7 8 8 8 9 8 8 8 10 12 11 13 12 15 18 15 16 16 16 17 21 32 39 42 48 53 56 63 66 59 54 49 42 50 56 64 92 91
10 10 11 11 12 13 13 14 14 15 16 17 18 16 19 20 22 28 29 34 41 44 49 59 69 74 81 89 93 94 90 84 79 74 69 65 61 53 46 37 21 11 12 17 18 15 11 9 9 9 9 9 7 7 6 6 6 6 7 8 9 8 8 9 8 9 8 8 8 7 9 8 10 12 10 12 11 10 13 15 22 30 33 37 49 55 55 60 64 69 69 60 67 76 73 84 93
9 9 11 11 12 12 12 13 13 15 14 15 16 26 41 31 22 32 35 41 48 49 51 56 67 75 80 85 85 85 82 77 73 69 66 62 56 46 39 31 18 11 11 13 13 11 11 10 10 10 9 9 8 8 7 6 6 7 8 8 9 9 8 9 8 9 8 9 10 8 8 9 10 10 15 24 19 11 11 10 11 13 15 19 34 47 48 50 52 59 66 67 69 76 78 79 86
8 10 11 10 15 14 12 12 13 13 13 15 12 35 69 45 23 36 40 47 55 55 56 56 62 69 74 76 76 76 73 72 70 66 63 57 49 39 34 30 19 13 13 12 12 12 12 11 11 10 10 10 9 9 8 7 7 7 8 8 9 8 8 9 9 9 9 10 12 10 9 10 12 11 21 33 26 15 13 13 13 10 11 17 25 34 42 44 41 42 49 56 60 65 74 78 76
8 12 10 10 21 18 11 11 14 12 11 18 9 35 80 50 23 39 41 48 57 56 58 57 58 61 64 68 68 69 69 68 65 61 57 51 46 38 32 31 24 15 13 13 13 13 12 12 12 11 10 10 10 9 8 8 8 8 8 8 9 9 9 9 9 9 9 10 9 9 9 9 11 12 14 19 15 13 14 18 19 16 17 21 21 22 31 42 43 38 37 43 50 54 62 69 71
9 12 9 11 17 15 14 9 12 14 10 17 13 43 84 48 22 39 41 48 56 57 60 58 59 59 60 64 65 66 65 63 60 56 53 47 41 34 29 31 30 21 14 14 14 13 13 13 12 12 11 10 10 10 9 9 8 8 8 8 9 9 9 9 9 9 9 9 9 8 9 8 9 10 10 12 12 12 11 14 16 15 20 22 22 22 25 38 49 47 43 46 50 52 56 58 65
9 11 10 13 10 19 36 20 8 14 12 15 12 33 54 29 24 41 42 49 54 57 61 59 61 61 61 63 62 62 61 60 58 52 44 35 28 25 25 29 32 25 16 14 15 14 13 12 12 12 11 11 10 10 10 9 9 8 8 8 9 8 9 9 8 9 9 9 9 8 9 8 8 8 10 12 12 12 10 11 12 11 14 15 17 23 24 30 44 50 47 52 59 60 64 68 71
10 11 11 13 9 21 39 21 9 14 14 15 16 30 33 18 28 39 40 48 51 54 57 57 61 60 62 62 60 61 59 56 51 42 31 23 20 21 26 29 30 24 16 15 15 14 14 13 12 12 12 12 11 11 10 10 9 9 9 8 8 8 8 9 8 9 9 8 9 9 8 8 8 8 10 11 11 11 11 10 10 10 10 11 11 13 19 26 35 46 46 49 64 70 74 86 91
12 13 12 15 16 20 21 14 15 16 19 22 20 32 31 19 27 34 41 48 50 55 53 53 58 57 59 60 60 58 52 45 38 32 26 20 20 21 24 24 22 19 16 17 16 15 14 13 12 11 11 12 12 12 10 11 10 9 10 9 9 9 8 9 9 8 9 9 8 9 9 8 9 9 9 10 11 10 10 10 10 9 8 9 9 7 13 22 29 40 47 47 55 67 79 91 99
13 15 15 15 19 23 16 15 20 17 27 33 21 25 25 19 23 26 35 43 49 57 57 57 60 60 61 59 59 55 44 36 29 27 26 25 26 25 25 23 22 21 20 19 18 16 14 13 14 13 11 11 11 13 11 11 11 10 10 10 9 10 9 9 9 9 9 9 9 9 9 9 9 10 10 10 10 10 9 9 8 8 8 6 6 6 7 13 16 22 35 45 47 52 68 84 94
15 16 17 16 20 25 17 15 20 18 28 33 21 24 26 22 21 20 25 32 40 50 55 59 60 60 62 60 60 54 40 31 28 29 33 34 35 34 32 30 28 28 26 25 23 21 17 15 16 15 15 14 12 13 14 13 12 12 11 11 11 10 10 10 10 10 10 9 10 9 9 9 9 10 10 10 10 9 8 8 8 6 6 5 4 4 4 4 6 6 14 30 43 49 57 70 83
19 18 18 20 21 22 19 16 18 17 22 24 19 22 25 20 20 21 22 26 30 36 42 46 49 51 55 58 57 46 35 31 33 38 42 43 41 39 38 38 39 37 36 35 33 27 22 20 19 18 19 18 16 15 15 15 14 14 13 13 13 12 12 12 11 11 11 10 10 10 10 10 10 10 10 10 9 8 7 6 6 5 4 4 3 3 3 3 3 4 5 10 24 42 53 60 70
22 21 20 23 22 21 25 23 20 19 19 19 18 19 20 18 18 19 19 22 27 31 34 37 41 46 49 49 44 35 31 33 39 44 48 48 45 44 48 51 50 47 45 44 41 33 26 25 22 20 20 20 18 18 17 17 15 15 15 14 14 14 14 13 13 13 12 12 11 11 11 10 10 10 9 9 7 7 6 5 4 4 4 3 3 3 3 3 3 3 4 3 7 20 39 58 70
22 22 22 23 21 22 26 25 27 28 21 19 19 18 21 22 19 19 17 17 21 26 31 35 37 40 39 35 32 31 33 39 45 49 53 54 53 56 62 65 60 55 54 53 49 38 30 29 25 23 23 21 20 19 18 18 17 16 15 15 15 14 15 14 14 14 13 13 13 12 12 10 10 9 8 7 6 5 5 5 4 3 4 3 3 4 3 3 3 2 3 2 3 9 24 53 76
19 19 20 21 21 19 21 21 23 25 24 24 23 23 30 29 22 22 20 16 17 19 22 26 30 31 31 33 37 40 42 48 53 56 59 64 69 74 76 74 70 65 63 64 57 42 32 30 27 25 23 21 20 19 19 19 17 17 16 15 15 13 14 14 14 14 13 12 12 12 11 10 8 7 6 5 5 5 4 4 4 3 4 3 3 3 3 3 3 3 3 2 2 7 14 32 59
20 20 19 18 18 16 18 18 17 25 33 33 28 28 33 32 24 21 19 18 17 17 17 18 23 28 31 39 47 51 53 56 59 61 65 71 77 82 84 82 80 76 72 71 62 44 33 32 29 26 24 22 22 20 19 19 18 17 15 14 13 12 12 12 12 11 11 11 10 9 8 8 7 5 5 4 3 4 4 3 4 3 3 3 3 3 3 3 3 3 3 3 2 2 5 9 23
30 34 25 18 18 17 17 18 17 24 27 25 24 23 24 27 28 26 24 23 21 18 18 18 21 28 34 40 47 51 54 57 60 65 70 74 77 79 82 84 87 84 75 69 61 44 35 33 28 25 23 22 22 22 20 18 16 15 14 13 12 11 10 10 9 8 7 7 6 6 5 4 5 4 3 4 3 3 3 3 3 3 3 3 3 3 3 3 3 4 2 3 4 2 3 3 4
32 39 29 25 28 26 25 25 23 23 22 23 25 22 22 29 33 33 30 27 25 22 21 23 25 29 34 40 46 51 55 58 61 67 72 74 75 75 77 80 83 81 70 62 56 43 34 30 26 24 23 22 23 22 20 16 14 13 12 11 10 9 8 7 7 6 5 5 4 4 4 3 3 3 3 2 3 3 3 3 3 3 3 3 3 3 3 3 2 3 3 2 3 3 2 3 2
34 37 30 27 28 28 31 33 28 25 26 28 26 24 30 37 38 39 36 29 28 25 25 28 29 30 34 38 45 53 58 60 61 66 70 71 72 72 71 69 69 69 60 50 46 38 31 27 24 25 25 24 24 22 18 14 12 12 10 9 8 7 6 5 5 5 4 4 4 4 3 3 3 3 3 3 2 3 2 3 3 3 3 3 3 3 2 4 3 2 3 3 3 3 3 3 3
32 33 32 29 29 29 27 27 26 25 28 28 27 31 32 33 36 39 37 31 28 31 33 33 31 32 34 36 41 48 51 54 55 57 62 66 66 62 59 56 53 50 43 40 40 36 33 31 28 30 30 26 25 21 17 13 10 9 8 7 7 6 5 4 4 3 3 3 3 4 3 3 3 3 3 3 3 3 3 3 3 3 4 3 3 4 3 3 4 3 3 3 3 3 3 3 3
30 37 44 43 41 42 36 30 26 23 30 33 32 34 27 25 31 33 32 27 23 28 33 35 35 36 38 38 40 44 46 48 49 49 53 56 57 53 49 42 34 32 37 44 45 39 39 38 31 31 31 27 24 22 17 13 10 7 6 6 6 5 4 4 4 3 3 3 3 3 3 3 3 3 3 3 3 4 3 3 4 3 4 4 4 4 4 4 3 4 3 3 3 3 3 3 3
32 36 45 44 44 57 53 44 48 46 42 42 36 31 26 26 29 28 29 28 21 23 27 32 37 38 39 39 39 41 45 47 49 51 55 56 55 49 39 29 23 26 39 49 47 44 46 44 36 33 31 27 24 23 20 16 12 8 7 7 6 5 5 5 5 4 4 4 4 3 4 3 3 3 3 4 3 4 4 4 4 5 4 4 5 4 4 5 4 4 4 4 4 3 3 3 3
34 38 45 42 48 70 61 47 64 64 46 43 40 34 31 31 32 30 31 30 23 22 23 27 32 32 32 30 30 33 38 44 47 51 54 51 44 36 26 20 21 27 39 46 44 45 49 46 39 35 33 31 29 28 26 22 17 15 13 12 11 9 9 8 7 7 6 6 5 5 5 4 4 4 4 4 4 4 5 5 5 5 5 5 5 5 5 5 5 5 5 4 4 4 4 4 4
30 38 43 39 41 60 58 53 70 69 58 60 52 39 34 34 40 43 43 42 36 30 27 26 28 29 29 26 25 27 31 35 35 34 36 32 26 22 20 22 26 34 44 49 49 51 53 50 46 44 43 43 41 39 36 28 21 20 20 21 22 22 22 20 18 17 16 15 13 11 10 8 7 6 5 5 5 6 5 6 6 6 7 7 6 6 6 6 6 6 5 5 5 5 4 4 4
25 28 30 30 30 37 42 44 51 50 55 60 47 34 31 33 41 44 43 46 48 45 39 35 34 33 32 29 25 25 29 33 32 28 24 21 21 20 19 24 33 46 56 60 63 66 64 62 59 57 56 55 55 55 51 40 29 24 24 27 34 38 37 33 30 29 29 28 27 24 21 18 15 12 11 9 8 8 8 7 8 8 8 8 7 7 7 7 7 7 7 7 6 6 6 5 5
25 30 29 29 29 32 34 35 36 35 36 35 28 25 23 25 32 36 38 43 50 55 53 47 45 44 43 42 37 31 30 35 40 41 36 34 42 44 39 39 45 57 69 74 78 79 77 75 72 68 65 63 65 65 62 54 45 37 34 38 45 49 47 41 37 36 36 36 36 34 31 28 25 22 18 15 12 11 11 10 10 10 10 10 9 9 8 8 8 8 7 7 7 7 7 6 6
14 23 28 31 31 30 33 36 36 34 31 30 28 24 23 27 32 37 41 44 47 56 60 56 53 52 53 55 57 53 49 49 52 59 60 58 64 69 67 69 71 74 81 83 82 81 79 76 72 70 71 72 71 69 68 65 60 57 56 56 57 55 50 44 39 40 43 43 41 39 38 36 33 31 27 23 20 16 14 13 12 12 11 11 11 11 11 10 9 9 9 9 9 9 9 9 8
8 12 17 25 30 32 38 43 44 43 41 43 39 28 25 29 33 41 49 48 47 52 57 62 62 62 64 66 71 74 74 73 71 75 80 77 76 79 81 88 92 92 95 92 87 84 82 83 83 77 75 76 72 67 70 70 67 71 74 72 69 63 56 51 49 51 51 48 45 42 42 42 39 38 35 32 29 24 21 18 16 15 14 13 13 12 12 12 11 11 10 10 10 10 11 11 11
13 17 13 12 14 20 26 32 42 52 54 55 50 38 36 39 34 38 49 51 51 51 52 61 67 68 71 72 76 78 81 84 83 83 87 85 86 91 96 99 99 100 100 94 87 81 76 82 92 90 84 79 69 63 67 65 62 69 77 80 80 74 65 60 59 62 61 56 50 46 45 45 43 42 40 39 37 35 31 27 23 21 18 16 15 14 13 13 13 13 13 13 13 13 13 12 13
14 21 24 22 22 27 30 27 29 34 39 43 42 37 46 55 43 37 48 53 51 50 50 58 65 68 71 74 76 76 79 84 84 84 86 87 88 90 94 96 93 95 96 91 90 89 82 83 93 96 91 87 78 70 67 63 61 69 76 79 82 78 71 64 60 61 65 64 57 51 47 46 45 45 42 41 41 40 38 37 34 31 28 25 22 20 17 15 14 14 14 15 15 15 15 16 16
7 11 17 21 29 37 40 41 39 37 38 40 37 32 38 45 36 31 45 54 51 48 48 52 58 63 69 74 74 73 75 80 83 83 82 80 74 66 65 67 64 66 71 73 78 81 80 84 87 82 79 84 87 83 82 83 82 81 83 81 77 74 71 68 62 62 67 69 65 59 53 48 48 47 45 42 43 44 42 38 35 33 33 33 33 31 28 25 21 19 17 16 17 16 17 17 17
Wind_Speed
33 32 30 29 28 27 26 25 26 25 24 25 24 27 28 27 27 26 24 24 24 25 25 25 25 26 26 26 25 25 25 25 24 25 24 22 22 23 23 24 23 24 24 23 23 22 21 20 20 19 19 19 18 17 17 17 17 17 17 17 16 15 14 13 12 12 13 13 14 14 13 12 12 11 10 10 10 9 8 7 7 9 10 11 10 9 7 6 6 6 5 4 6 8 8 8 6
33 32 30 29 28 27 26 26 26 25 25 25 25 28 28 27 27 27 25 24 24 25 26 25 26 26 27 27 25 25 26 26 25 25 25 23 23 24 25 25 24 25 25 25 25 24 22 21 20 20 19 19 19 18 17 17 17 18 18 17 16 15 14 13 13 13 13 14 14 14 14 13 12 11 10 9 9 9 8 8 8 8 10 11 12 11 8 7 7 7 5 5 7 9 9 9 7
32 31 30 29 28 27 27 26 26 25 25 24 26 29 27 28 29 27 25 24 25 26 26 26 26 26 27 26 25 26 26 24 24 25 25 25 25 25 26 26 26 26 26 27 27 25 23 22 21 21 20 20 20 19 17 17 18 18 18 17 16 15 14 13 13 13 14 14 14 14 14 13 12 10 8 8 9 10 9 9 9 9 10 12 13 12 11 9 8 8 6 5 7 9 10 10 8
31 30 29 29 28 28 27 26 26 25 25 25 28 29 27 29 29 28 26 25 26 26 27 26 26 26 26 26 25 26 26 24 25 26 26 26 26 26 27 27 28 28 28 28 28 26 24 22 22 22 22 21 20 19 18 17 18 18 18 17 16 15 14 14 14 14 14 15 15 15 14 13 11 9 7 6 7 10 10 10 10 10 10 12 13 13 13 11 10 9 7 6 8 10 11 11 9
30 29 29 29 28 28 27 26 26 24 26 26 29 30 27 29 29 28 27 26 27 26 27 27 27 27 26 26 26 26 26 25 26 26 26 27 28 28 28 29 29 29 29 29 28 27 25 23 22 22 22 21 21 20 19 18 18 18 17 17 16 15 14 14 14 15 15 16 16 15 14 12 10 9 7 6 6 8 11 11 11 11 12 12 13 15 15 13 12 10 8 7 8 10 12 12 11
29 29 29 29 28 28 27 27 25 25 28 27 30 30 27 29 29 29 28 27 28 27 28 27 27 27 27 26 26 27 26 26 26 27 27 28 29 29 30 30 30 30 30 29 29 28 26 25 23 22 22 22 21 21 20 19 18 17 17 17 16 15 15 15 15 16 16 16 16 15 14 12 11 10 8 7 6 7 10 12 12 12 13 13 14 15 15 15 13 12 9 8 9 11 13 14 12
28 29 28 28 28 28 27 27 26 28 29 27 31 31 28 30 29 29 30 29 29 28 28 27 28 27 27 27 27 27 27 27 27 28 28 29 30 30 30 31 31 30 30 30 29 28 26 25 24 23 23 22 22 22 21 19 18 17 17 17 16 16 16 16 16 17 17 17 16 15 14 13 12 11 9 8 7 7 8 11 13 13 13 14 14 15 16 15 15 14 11 9 9 11 14 15 13
28 28 28 28 28 27 27 27 27 29 29 28 31 31 29 29 29 30 30 30 29 28 28 28 28 27 27 27 27 28 28 28 29 29 30 30 31 31 31 31 31 31 31 30 28 27 26 25 25 24 24 23 22 22 21 20 18 17 18 17 16 16 17 17 17 17 17 16 15 15 14 14 13 11 10 9 8 8 8 9 12 14 15 15 15 16 17 16 16 16 13 10 10 12 14 16 15
27 28 28 28 28 27 27 27 28 29 29 30 31 31 29 29 29 30 31 31 29 29 29 28 28 28 27 27 28 29 29 30 30 31 31 32 32 32 32 32 32 31 30 29 27 26 25 25 25 25 24 23 22 22 22 20 19 18 18 18 17 17 18 17 17 17 17 16 16 16 15 14 13 12 11 11 11 11 11 11 12 14 16 17 16 17 18 18 17 17 15 12 11 12 14 16 17
27 28 27 28 28 27 26 27 28 28 30 31 32 32 30 29 30 30 31 31 30 29 29 29 28 28 28 28 29 31 31 32 32 32 33 33 33 33 33 33 32 31 29 27 26 25 25 26 26 26 25 24 23 22 22 21 19 19 18 18 18 18 18 18 17 17 17 16 17 16 15 15 14 13 12 12 12 13 14 14 13 14 17 18 17 17 18 18 18 18 17 14 12 13 14 16 18
27 27 27 28 27 27 27 29 29 28 30 30 32 32 30 29 30 30 31 31 31 30 30 29 29 29 29 30 30 32 33 34 34 34 34 34 34 34 33 32 31 30 28 26 25 25 26 26 26 26 26 25 24 23 23 21 20 19 18 18 19 19 18 18 17 17 17 17 17 16 16 15 15 14 13 13 14 14 14 14 14 15 17 18 18 17 18 19 19 19 18 16 14 13 15 17 18
26 27 27 27 27 28 28 29 29 28 29 30 32 32 29 29 30 30 31 31 31 31 30 29 29 29 30 32 32 33 34 35 35 35 34 34 34 33 32 31 30 28 27 26 26 26 26 26 26 26 26 25 25 24 24 22 21 20 19 19 19 19 19 18 17 17 17 17 17 16 16 16 15 15 15 15 15 15 15 13 13 14 17 18 18 17 17 19 19 19 18 17 16 15 15 18 19
26 26 26 28 27 27 28 28 29 28 28 31 32 31 29 30 30 30 31 31 30 30 30 29 29 29 31 33 34 34 35 35 35 34 34 34 33 32 31 30 28 27 26 26 25 25 26 26 26 26 26 26 25 25 23 21 21 20 19 20 20 19 19 18 18 17 17 17 17 17 17 16 16 15 15 16 17 17 15 13 12 13 16 18 18 17 17 18 19 19 19 19 18 16 16 18 20
26 25 26 28 27 27 28 28 30 28 29 32 31 30 29 30 29 29 30 29 30 30 29 28 28 30 31 32 33 34 35 35 34 34 34 33 32 32 31 29 27 25 25 25 24 24 25 25 25 25 26 26 25 24 24 22 20 20 19 20 20 19 19 18 17 17 17 17 17 17 17 17 16 16 16 17 18 18 15 13 11 12 15 17 17 16 16 17 19 19 19 19 19 18 18 19 20
25 25 26 27 26 27 27 28 29 27 30 33 30 30 30 30 29 29 29 29 30 29 28 27 28 29 30 31 32 33 33 33 33 33 33 32 32 31 29 27 26 25 24 24 24 24 24 24 24 24 25 26 25 24 25 24 21 20 20 20 19 19 19 17 17 17 17 17 17 17 17 17 17 17 17 18 18 18 16 13 11 11 14 15 16 16 16 17 19 20 19 20 20 19 19 19 21
24 25 26 27 26 27 27 28 28 28 31 32 29 30 30 30 30 28 28 29 29 27 26 26 26 27 29 30 30 30 30 31 31 32 32 31 30 29 28 26 25 24 24 24 24 24 23 23 23 23 24 25 25 24 25 24 21 21 20 19 19 19 19 17 17 17 17 18 18 17 17 17 17 17 18 18 17 17 16 13 11 11 13 14 15 16 16 17 18 19 20 20 21 21 21 20 21
24 25 26 26 26 27 27 28 28 29 31 30 29 29 29 30 30 29 28 28 28 25 25 24 24 26 28 29 27 28 28 29 29 30 30 29 29 28 27 26 25 23 23 23 23 23 23 23 23 23 24 24 24 24 24 23 22 21 20 19 19 19 19 18 17 17 17 17 18 17 17 17 17 17 17 17 16 17 16 14 12 12 12 13 14 15 16 17 18 19 19 21 22 23 22 21 22
24 26 25 26 26 26 27 28 28 29 30 29 28 27 28 29 29 29 28 27 27 25 24 23 23 25 26 27 27 27 28 28 29 29 29 28 28 27 26 25 23 22 22 22 23 23 23 23 24 24 24 23 22 23 23 22 21 21 20 20 19 19 19 18 18 17 17 17 17 17 16 17 16 15 16 16 16 16 15 14 13 13 14 13 14 15 15 16 18 20 20 21 22 24 23 22 22
24 25 25 25 26 26 27 27 28 28 29 28 27 26 26 28 29 29 28 26 25 24 23 23 24 25 26 26 25 27 28 28 28 29 28 27 26 26 25 24 22 22 22 22 22 22 22 24 26 26 25 23 22 22 22 22 21 21 21 20 20 20 19 19 18 17 17 16 16 16 15 15 15 15 16 15 16 15 15 14 13 14 15 16 15 15 15 16 18 20 21 21 21 23 24 23 23
24 23 24 25 26 26 26 27 27 28 27 27 26 25 25 27 27 28 28 26 24 23 22 22 23 25 25 24 25 26 26 27 28 28 27 25 25 24 24 24 23 22 22 22 22 22 23 25 26 27 27 25 23 21 21 22 21 21 21 21 20 21 20 19 19 18 17 16 16 16 15 15 15 15 16 15 16 16 14 14 13 14 16 17 18 17 16 16 18 21 22 21 21 22 24 24 24
22 22 24 24 25 25 26 26 27 26 26 26 25 24 24 25 26 26 26 25 23 22 22 23 23 23 25 25 25 25 26 27 26 26 25 24 24 24 25 25 24 23 23 23 23 23 23 25 26 27 28 26 23 22 21 22 22 22 22 21 21 21 20 20 19 18 17 16 16 16 15 15 15 15 15 15 16 15 14 13 14 15 17 18 19 18 17 17 18 21 23 23 22 22 24 26 26
21 22 23 23 24 24 25 25 25 25 24 25 24 24 24 24 24 25 25 25 25 24 23 23 24 25 27 28 26 24 25 26 25 24 23 23 23 24 25 26 25 25 24 23 23 23 23 24 25 26 27 26 24 22 22 22 23 23 22 22 22 22 21 20 19 19 17 16 16 16 16 15 15 15 15 14 14 14 14 14 14 16 17 18 19 19 19 19 19 20 24 25 24 23 25 28 28
21 21 22 23 23 24 24 23 23 23 23 24 23 23 24 24 24 24 24 25 25 24 23 23 26 28 30 30 26 23 24 25 24 22 21 21 22 24 26 27 26 25 24 24 24 23 22 23 25 25 26 25 23 22 22 23 23 23 23 22 22 22 22 21 20 19 18 17 17 16 16 16 15 15 15 15 14 15 15 15 15 15 16 18 19 20 20 20 20 20 23 26 26 25 26 28 30
22 22 22 23 23 24 24 22 22 22 23 23 22 23 23 23 24 24 24 24 24 24 24 25 26 28 29 30 27 24 24 24 22 21 21 22 23 25 27 27 26 25 25 25 25 24 22 22 24 24 24 23 22 22 23 24 24 24 23 22 22 23 22 21 20 19 18 18 17 17 18 17 17 16 16 16 16 17 17 16 15 15 16 17 18 20 21 21 20 20 21 25 27 26 25 25 28
23 23 23 23 24 25 24 22 23 23 23 22 22 23 24 24 24 23 23 24 25 25 25 26 26 28 29 29 26 24 23 23 22 21 22 24 25 26 26 26 26 26 26 26 26 24 22 22 23 23 22 21 22 22 24 25 24 24 23 23 23 23 22 21 20 19 19 18 19 20 19 18 18 18 18 19 19 19 18 17 16 16 16 17 18 19 21 21 21 20 21 24 26 26 24 24 24
24 24 24 24 25 26 25 24 24 25 23 22 23 23 23 23 23 23 23 23 24 25 26 26 27 28 28 26 25 25 24 23 23 23 24 25 26 26 25 26 26 27 27 27 26 25 22 22 22 22 20 20 21 22 24 25 25 24 23 23 23 23 22 21 20 20 20 20 20 21 20 20 20 21 20 21 21 20 19 19 18 17 17 17 17 18 19 20 20 21 21 23 25 25 24 25 24
24 25 24 24 26 27 26 25 26 26 24 23 23 23 22 22 22 22 22 23 24 25 26 27 28 29 28 26 25 24 24 24 24 24 25 26 25 25 25 26 27 27 27 26 26 24 21 21 21 20 19 19 20 21 23 24 25 24 24 24 24 23 22 22 22 21 21 21 21 22 22 22 23 23 22 22 22 21 20 20 19 18 18 17 17 18 17 17 18 20 22 23 25 25 25 26 27
24 24 23 24 25 26 26 26 26 26 25 23 23 22 22 22 23 23 22 22 24 25 27 28 28 29 29 27 26 25 24 24 24 24 26 25 24 25 26 26 26 25 24 23 22 21 21 20 20 19 18 18 18 20 21 23 24 24 24 24 24 23 23 23 22 22 22 22 22 23 24 23 25 25 24 24 23 22 21 20 19 19 18 17 17 18 17 17 17 19 21 22 24 24 25 27 28
24 23 22 23 24 25 25 25 26 25 25 24 23 22 21 23 24 24 23 23 25 27 28 29 29 30 29 29 28 26 25 24 25 26 26 25 25 26 26 26 25 23 22 21 21 21 21 21 21 20 20 19 19 20 21 22 23 24 25 25 24 24 23 23 23 22 22 23 23 24 25 25 27 27 26 25 24 23 22 21 20 19 18 18 17 17 18 18 18 18 19 21 22 22 24 26 27
23 22 22 22 21 23 23 23 24 24 25 24 22 18 18 24 26 25 25 25 26 27 29 30 31 31 30 29 28 27 26 26 26 27 26 25 26 27 27 26 25 23 21 21 23 23 23 23 22 21 21 21 21 21 22 23 24 25 25 25 25 24 24 24 23 23 23 24 24 25 26 27 28 27 26 25 24 24 23 23 22 21 20 20 19 18 18 18 18 18 19 20 21 21 22 24 25
22 21 21 20 18 22 23 22 23 24 25 24 21 17 15 22 27 26 26 27 27 29 30 31 32 31 30 29 28 28 27 27 27 28 27 27 28 29 28 28 26 24 23 23 24 25 25 25 24 23 22 22 23 22 23 23 24 25 26 26 25 25 24 24 24 24 24 25 24 25 26 27 28 26 26 26 24 23 23 23 22 21 21 21 20 19 19 19 19 20 20 20 21 21 22 23 25
21 19 20 19 17 23 23 21 23 25 25 24 22 19 14 20 26 27 27 27 28 30 31 31 32 32 31 31 30 29 28 28 28 28 28 28 30 32 31 30 28 26 25 25 25 26 26 25 25 24 24 23 23 23 24 24 25 25 26 26 25 25 25 25 25 24 25 25 25 25 26 27 28 27 27 26 25 24 23 23 22 21 21 21 21 21 20 21 21 20 20 20 20 21 22 22 25
20 19 21 19 19 22 21 22 24 24 24 24 23 20 16 21 25 26 27 27 28 29 30 31 31 32 31 31 31 30 29 29 29 29 29 31 33 34 33 32 29 27 27 27 26 27 27 26 24 24 24 24 24 23 24 24 25 25 26 26 26 26 26 26 26 26 26 26 26 26 27 28 28 28 27 25 25 24 24 23 22 22 22 22 21 22 22 22 21 20 21 21 20 20 21 21 23
18 19 20 20 21 18 16 21 25 23 24 25 24 24 25 25 24 26 27 27 28 29 30 31 31 32 31 31 31 30 29 29 29 30 31 31 32 32 32 31 29 29 29 28 28 28 28 26 24 24 24 24 25 25 24 24 25 26 26 27 27 27 27 27 27 27 28 28 27 27 27 28 29 28 27 26 25 24 24 24 23 24 24 23 22 22 23 23 21 21 22 22 21 21 20 20 22
16 17 19 19 20 18 17 21 24 23 24 25 23 25 29 27 25 26 27 27 28 29 29 30 30 31 31 31 31 30 29 29 30 30 29 29 28 29 29 28 28 29 29 29 29 29 29 27 25 23 23 24 26 27 27 26 26 27 27 28 28 28 29 29 29 30 30 30 29 28 28 29 29 29 28 27 26 25 25 25 24 25 25 24 23 23 24 24 23 22 23 23 22 21 21 20 20
15 16 17 18 19 20 22 22 22 22 22 24 24 24 26 26 26 27 27 28 28 29 29 28 28 29 29 29 29 29 29 29 28 27 27 27 26 26 27 27 28 28 29 30 30 31 30 28 26 24 23 23 25 27 28 29 29 29 29 30 30 30 30 31 31 31 31 31 31 30 29 29 29 29 29 28 27 26 25 25 25 25 25 25 24 24 24 25 24 23 24 25 23 23 22 21 20
15 15 16 18 18 19 22 22 21 21 19 22 25 23 25 26 27 27 28 29 30 30 30 29 29 29 29 29 29 29 29 28 27 25 25 25 25 25 26 27 27 28 29 31 31 32 31 28 27 25 24 24 23 24 26 28 29 29 30 31 31 32 32 32 32 32 32 31 31 30 30 29 29 30 30 29 28 27 26 26 26 25 25 25 24 24 25 26 26 25 24 25 25 24 24 23 22
14 14 15 16 16 18 20 19 20 19 18 22 22 21 24 25 24 25 25 27 29 32 32 32 32 31 31 32 31 31 29 27 25 23 22 22 22 24 25 26 27 28 29 31 32 33 32 29 28 26 25 25 24 23 24 25 26 27 29 30 30 31 32 32 32 32 31 31 31 30 30 30 30 30 30 29 29 28 26 26 25 25 24 24 24 24 24 25 26 26 26 26 26 26 26 25 24
14 15 15 15 17 19 19 19 20 19 18 21 20 19 22 22 21 22 21 22 25 29 31 32 33 33 33 33 32 31 28 26 24 22 22 21 22 23 24 25 26 27 28 29 31 33 32 30 29 27 25 25 24 24 25 25 25 26 27 28 28 29 30 30 30 30 30 30 30 30 30 30 30 30 29 29 29 28 26 25 25 24 24 24 24 24 24 25 26 26 26 27 28 28 27 26 26
17 17 16 18 19 18 19 21 22 20 20 22 21 19 22 22 21 22 21 19 21 24 27 29 31 31 32 32 31 29 27 25 23 22 22 23 24 24 24 24 25 26 26 28 30 32 32 30 29 27 25 24 25 25 25 25 25 25 26 26 26 27 27 28 28 28 29 29 29 29 29 29 29 29 28 28 28 27 27 25 25 24 23 23 24 24 25 25 26 26 26 27 29 30 30 28 27
20 20 19 21 22 20 22 24 22 21 22 23 23 21 22 24 23 23 24 22 21 23 25 27 28 29 31 31 29 28 26 25 24 23 24 25 26 25 25 25 25 26 26 27 30 32 32 30 29 27 24 24 25 24 24 24 24 24 24 25 25 25 26 26 27 27 27 27 28 28 27 28 28 28 28 27 27 27 27 26 25 24 23 23 24 24 25 25 26 27 26 26 27 29 30 30 30
23 22 22 23 24 24 25 27 25 23 23 25 25 22 22 25 26 25 26 25 24 25 26 28 28 28 29 29 28 27 26 25 25 24 25 27 27 27 26 26 26 26 27 28 31 33 32 31 29 26 24 24 24 23 23 23 24 23 23 23 24 24 24 25 25 25 25 25 25 26 26 26 27 27 27 26 26 26 26 26 25 24 23 23 23 24 25 25 26 26 26 25 26 28 30 31 32
22 22 23 24 25 26 26 27 27 24 23 25 25 22 22 26 28 27 26 27 28 28 28 29 29 28 28 28 28 28 28 27 27 26 26 27 28 27 26 26 26 27 28 29 31 33 33 32 30 27 24 23 23 22 22 22 23 23 22 23 23 23 23 23 23 23 23 23 23 23 24 24 25 26 26 26 25 25 26 25 24 23 23 23 23 23 24 24 25 25 25 25 26 28 30 31 33
21 21 22 23 24 25 26 27 27 25 26 28 26 24 25 25 26 27 25 25 28 30 30 30 30 29 29 29 29 30 30 29 28 27 27 27 28 28 27 26 26 28 30 30 33 35 34 32 30 27 25 24 22 22 21 21 21 22 22 22 22 22 22 22 22 22 22 22 22 22 22 22 23 24 24 24 24 24 25 25 24 23 22 22 22 22 23 23 24 25 25 24 25 26 28 30 31
20 21 22 22 23 23 24 26 26 27 28 27 26 26 25 24 26 28 26 25 28 31 30 30 30 30 30 31 31 31 31 30 29 28 28 28 28 28 29 29 28 30 31 32 34 36 35 32 29 26 25 24 22 21 21 20 20 20 21 21 21 21 21 21 21 21 21 21 21 21 21 21 21 22 22 23 23 23 23 23 23 22 22 22 22 22 22 23 23 24 24 24 24 25 27 28 29
19 21 21 21 22 22 24 25 25 28 28 27 26 26 26 25 25 26 27 26 29 32 32 30 31 32 32 32 32 32 32 31 30 29 29 29 29 30 31 31 30 31 32 33 35 36 34 30 26 23 23 22 21 21 21 20 20 20 19 19 20 20 20 20 20 21 21 21 21 21 21 21 21 21 21 21 22 22 22 22 21 21 21 21 21 22 22 22 22 22 23 23 23 24 26 26 27
18 19 18 20 21 22 24 25 26 27 27 26 25 26 27 26 24 25 27 27 29 32 32 31 32 33 33 33 33 33 33 31 30 30 30 30 30 31 32 32 31 31 32 33 33 32 29 25 22 21 21 21 21 22 21 20 20 19 19 19 19 19 19 19 20 20 20 20 20 20 20 21 21 20 20 20 21 21 21 21 20 20 19 20 20 21 21 22 21 22 22 22 23 23 24 25 25
17 17 17 18 19 21 23 23 25 25 23 23 22 23 25 24 22 24 24 24 27 30 31 31 32 33 33 34 34 34 33 32 31 30 30 29 30 30 31 31 30 30 29 29 28 26 23 22 21 20 21 21 22 22 22 21 20 20 19 19 19 19 19 19 19 20 20 20 19 19 19 20 20 20 20 20 20 20 20 20 20 19 19 19 20 20 20 20 20 21 21 21 22 22 23 24 24
17 17 18 19 19 20 21 21 21 20 20 21 21 22 23 21 21 22 20 19 22 24 27 29 30 31 31 32 33 33 33 33 32 31 30 29 29 29 29 29 29 27 25 24 24 21 21 22 21 20 21 22 23 23 22 22 21 20 19 19 19 19 19 19 18 18 19 19 19 18 18 19 19 19 19 19 19 19 19 19 19 19 19 19 19 19 20 20 20 19 19 20 20 21 22 22 22
17 18 18 19 18 18 21 21 18 18 20 22 22 22 22 21 22 23 19 17 18 19 22 25 26 26 27 28 28 29 30 31 30 30 29 29 28 28 27 26 25 24 23 22 21 19 21 23 22 22 22 23 24 24 23 22 21 20 19 19 19 19 19 19 19 18 18 19 18 18 18 18 18 18 18 18 18 18 18 18 18 18 18 18 19 19 19 19 19 19 18 19 19 20 21 21 21
18 18 19 21 20 19 21 20 16 16 18 20 21 22 23 23 23 23 20 18 18 18 20 22 23 24 23 23 23 22 23 24 24 24 24 25 25 25 24 23 21 20 20 20 19 19 21 22 22 23 24 24 24 24 24 24 23 21 20 20 20 20 20 20 20 20 19 19 19 19 18 18 18 17 17 17 17 17 17 17 17 17 18 18 18 19 19 19 19 19 19 18 19 20 20 21 20
17 19 20 22 22 22 24 23 21 22 22 22 24 26 26 25 25 24 23 20 19 19 21 22 22 22 22 22 21 20 19 18 18 19 19 20 21 22 21 20 19 18 18 18 19 19 21 22 23 25 25 25 25 25 26 26 25 24 23 22 22 21 21 20 20 20 20 19 19 19 19 19 19 18 18 17 16 16 16 16 17 17 17 17 17 17 18 18 18 19 19 19 19 19 20 20 21
16 17 19 20 20 22 24 25 26 28 29 29 30 30 28 27 27 26 24 22 20 19 20 21 22 22 22 21 20 19 17 16 16 16 17 17 18 19 19 19 19 18 18 19 20 22 23 24 25 26 26 25 25 27 27 27 27 26 25 24 23 23 22 21 20 20 19 19 18 17 18 18 19 19 19 18 17 16 16 16 16 16 16 16 16 16 17 17 18 18 18 18 18 19 19 20 20
18 18 18 18 20 22 23 24 26 27 29 29 30 30 28 26 27 26 23 23 22 20 19 20 21 22 22 21 20 18 17 17 16 16 17 17 18 19 20 21 21 21 21 22 23 24 26 27 27 27 26 26 26 27 27 27 26 26 26 24 23 23 22 21 20 19 18 18 17 17 17 17 18 19 19 19 19 18 17 17 16 16 16 16 16 16 16 17 18 18 18 18 18 18 18 18 19
20 21 21 20 21 23 22 23 25 26 27 26 28 31 29 27 27 25 23 23 23 21 20 20 20 21 22 22 20 18 17 17 17 17 18 19 21 24 25 27 27 27 26 25 25 27 27 28 29 29 28 27 27 27 26 26 25 25 26 25 24 22 21 20 19 18 18 18 18 17 17 17 18 18 19 19 20 20 19 19 18 18 17 17 17 17 17 17 18 19 19 19 19 19 19 19 19
22 23 24 24 25 25 25 25 25 25 26 25 27 29 28 25 26 26 25 25 24 23 22 22 21 22 22 22 21 20 19 19 19 19 19 20 23 26 28 30 30 30 30 30 29 30 30 30 31 31 29 27 27 27 26 26 26 26 26 26 25 23 22 21 19 18 18 19 19 19 18 18 18 18 19 19 20 20 20 21 21 21 20 19 19 18 18 18 19 20 20 20 21 21 21 21 21
22 23 24 24 25 26 26 27 28 28 29 29 31 31 28 24 26 27 27 27 26 25 24 24 24 23 23 23 23 23 23 22 22 22 22 21 21 23 25 26 26 27 30 32 31 32 34 35 35 32 29 28 28 28 27 27 27 27 27 26 25 25 24 24 23 21 21 21 21 21 21 20 19 19 20 19 19 19 19 20 20 20 21 21 21 21 20 20 20 21 21 22 22 22 22 23 22
25 25 25 25 26 26 27 28 27 28 30 31 34 36 33 30 31 30 29 30 30 29 28 27 27 26 25 25 25 25 25 25 26 25 25 24 22 22 24 25 25 26 28 29 30 32 34 35 35 33 31 30 29 29 30 29 28 27 27 26 26 26 26 26 26 25 24 24 24 24 23 23 22 22 21 20 20 20 19 19 19 19 19 19 20 21 21 22 22 22 22 23 23 24 24 24 24
Wind_Direction
264 264 262 261 261 260 257 256 254 253 251 249 247 248 252 253 255 255 251 250 251 253 251 249 248 247 247 247 247 246 245 244 243 244 246 246 246 246 247 248 250 253 255 257 259 260 262 265 265 266 268 270 271 272 275 279 283 285 287 289 291 293 292 291 291 291 291 292 292 293 290 286 280 273 267 258 247 234 222 217 215 212 216 221 221 223 222 225 235 251 269 248 218 211 214 215 217
262 261 260 259 259 257 254 254 253 251 249 248 246 245 249 252 251 251 249 248 249 250 251 248 248 247 247 246 247 247 247 247 246 247 248 247 246 246 246 248 250 253 256 259 261 262 264 266 266 266 268 270 272 273 275 279 282 283 285 288 290 290 289 287 286 286 287 287 288 287 285 281 275 271 265 254 241 229 219 218 220 216 216 221 224 223 226 231 235 248 262 249 222 211 213 215 218
259 258 258 257 257 255 252 253 251 248 246 244 245 245 246 247 248 251 249 246 246 247 249 248 247 247 247 247 246 247 248 247 247 247 248 247 245 243 245 247 251 254 258 260 263 264 265 267 267 265 267 270 273 274 275 278 280 281 283 287 290 288 286 284 282 282 283 283 283 281 279 276 272 270 265 252 239 228 219 219 224 225 221 222 224 224 227 231 236 247 258 248 225 212 212 214 217
256 255 255 254 254 253 252 251 249 247 244 238 242 245 241 244 247 250 248 245 244 245 246 246 246 246 246 248 246 247 247 245 245 245 244 244 242 242 245 248 252 256 259 262 265 267 269 270 268 265 266 269 272 273 273 275 277 280 284 288 289 286 282 281 279 279 279 279 278 276 275 272 268 263 259 252 241 229 221 219 225 229 228 226 227 226 227 230 235 246 258 249 227 213 210 214 216
254 254 252 252 250 250 250 249 248 245 242 237 239 243 239 242 245 247 248 244 242 242 244 244 245 245 245 247 247 247 246 244 243 241 240 240 241 243 246 249 253 257 260 264 266 269 272 272 269 266 267 269 272 272 271 272 274 279 284 288 288 284 280 277 276 275 275 275 274 273 273 268 261 253 249 247 243 231 222 222 226 230 232 231 229 228 228 229 233 243 256 251 231 214 209 213 215
253 252 251 250 249 248 248 247 247 242 241 239 239 241 238 239 242 244 246 243 241 240 241 243 244 245 245 245 246 246 245 242 240 240 240 241 243 245 248 251 254 257 261 264 267 270 272 272 269 267 268 270 271 271 271 271 273 278 283 286 284 280 277 275 272 271 271 271 271 271 268 260 251 245 243 243 244 236 227 225 228 231 234 234 232 230 228 230 233 240 251 249 233 217 208 211 213
251 250 249 249 248 247 246 245 244 241 241 239 238 240 236 237 239 241 243 243 241 239 239 241 243 244 245 244 243 243 242 240 239 240 241 243 245 247 249 253 256 259 262 265 269 272 272 271 270 269 270 272 272 271 270 270 272 278 281 280 279 278 275 273 270 269 268 269 268 266 261 251 243 241 240 238 240 239 233 231 233 234 236 238 236 232 228 231 234 238 246 245 235 222 210 209 211
249 248 247 247 247 246 245 243 242 241 242 238 238 239 234 235 236 238 240 241 242 241 239 239 242 243 243 242 240 240 239 240 240 241 243 244 246 249 252 255 257 260 263 267 270 271 271 271 272 271 272 272 272 271 270 270 272 277 278 275 276 275 273 270 268 267 266 266 264 260 254 244 239 241 240 237 237 242 245 244 241 238 238 239 237 232 227 228 232 236 241 244 238 227 213 208 209
248 246 245 246 246 245 244 243 242 242 242 239 238 237 234 233 234 235 237 239 242 242 240 239 240 241 241 239 238 238 238 240 241 242 244 246 248 251 254 257 259 262 265 268 269 270 271 272 273 273 273 273 272 272 273 273 274 277 276 273 273 272 270 268 265 265 265 264 261 255 248 240 238 242 243 240 242 249 254 257 252 242 237 238 238 233 226 224 229 233 237 242 238 230 219 210 209
246 246 245 244 245 244 243 242 241 240 240 240 238 237 235 233 233 234 235 238 241 242 242 240 239 240 241 239 237 237 238 240 242 244 246 248 251 253 256 259 261 264 267 268 268 270 272 274 275 275 275 275 274 273 274 275 275 276 273 270 270 270 268 266 264 264 264 261 257 252 245 239 239 242 244 244 247 254 259 262 259 247 237 236 238 235 226 222 225 230 233 238 237 231 224 214 209
245 245 244 244 243 242 241 241 240 238 239 239 239 238 236 234 233 233 233 236 238 242 243 241 241 241 241 239 237 238 239 241 243 246 248 250 253 256 259 262 265 268 269 269 270 273 274 275 276 277 277 278 276 274 274 274 276 273 270 269 271 269 267 264 264 264 262 259 254 249 244 240 240 245 249 250 253 259 264 266 261 250 237 233 235 235 227 220 223 228 230 235 236 232 226 218 211
243 243 243 242 240 239 239 240 240 238 239 239 239 239 237 235 232 231 232 234 236 240 243 242 242 242 242 241 239 240 241 243 245 247 250 252 255 258 262 265 268 269 270 272 274 275 275 275 276 277 278 278 276 274 274 272 273 272 270 271 269 267 266 265 264 263 261 258 253 247 243 242 242 247 255 259 261 262 265 267 259 246 233 229 231 234 230 221 220 226 229 232 235 232 226 221 215
241 240 240 240 239 239 239 240 239 238 239 239 239 239 237 235 232 231 231 233 236 239 242 242 241 242 242 242 242 243 244 245 247 248 251 254 257 260 264 266 268 270 272 275 276 275 274 274 275 276 276 276 274 274 274 270 271 272 270 268 266 265 267 268 267 265 262 258 253 248 246 245 246 250 256 262 265 265 266 265 255 238 225 224 228 233 233 225 220 224 229 232 234 231 227 225 220
240 239 237 239 238 238 237 238 239 237 240 238 238 239 237 236 233 231 231 233 235 236 242 243 242 242 242 242 243 245 246 247 248 250 252 255 258 261 264 265 267 270 274 276 276 276 275 275 275 275 274 274 273 272 273 271 272 272 268 266 265 265 265 266 267 265 261 255 251 250 249 248 250 254 258 264 267 268 267 262 249 231 219 220 226 231 236 233 225 224 228 233 235 232 229 227 222
239 237 237 238 236 237 236 237 238 236 241 239 236 237 236 237 235 233 231 233 235 235 241 243 243 244 245 244 243 245 247 248 250 251 254 256 259 261 262 264 267 270 273 275 275 275 276 276 276 275 272 271 271 271 271 272 272 269 265 264 264 264 261 260 260 259 257 254 253 253 252 251 253 256 259 263 265 265 263 255 242 227 218 220 226 231 234 237 233 227 227 232 235 232 230 227 223
238 236 236 237 235 236 236 237 238 237 241 239 235 236 236 238 237 236 233 234 237 237 240 243 244 245 246 245 243 246 248 248 250 252 254 256 257 259 261 263 267 270 272 273 274 274 275 276 277 275 273 271 270 269 270 271 271 267 264 263 262 262 261 259 256 254 255 255 255 255 254 255 257 258 261 262 260 260 259 251 236 225 219 221 226 230 233 235 236 232 228 229 234 232 229 228 223
236 235 235 236 235 236 237 237 238 238 241 239 236 236 236 238 239 239 236 235 237 239 241 242 244 244 245 246 245 247 247 248 249 250 252 253 255 258 261 263 266 269 271 273 273 273 273 274 275 276 274 272 270 268 268 268 267 267 265 264 261 259 260 261 256 253 252 252 253 255 255 257 257 257 260 262 259 256 257 251 236 226 221 222 224 228 231 233 236 235 231 229 233 234 229 227 225
234 234 234 236 236 237 238 237 238 238 240 239 236 236 236 238 239 241 240 238 238 240 241 242 242 241 243 246 246 245 245 247 248 249 250 251 255 258 260 263 265 269 272 273 274 274 274 273 273 274 275 274 271 267 266 265 263 263 263 261 260 257 258 258 256 254 251 250 251 252 253 257 260 259 260 260 258 254 253 250 241 231 226 225 225 226 229 231 234 236 235 233 234 238 233 225 225
234 233 233 235 236 237 237 237 238 238 240 239 236 234 235 237 239 241 243 242 240 239 240 242 242 241 241 243 243 243 243 245 246 247 249 251 254 257 261 264 266 270 274 276 277 277 276 274 274 274 275 274 269 266 263 261 259 258 258 258 256 255 255 255 256 256 255 254 252 250 249 254 259 261 262 260 259 257 252 250 245 238 234 231 231 230 230 229 231 233 236 237 235 239 238 226 223
234 232 232 233 234 236 237 237 238 238 239 239 237 234 234 236 238 241 243 245 243 239 235 236 239 241 240 239 238 239 240 241 243 246 249 252 256 260 264 267 270 272 275 277 278 278 276 276 275 275 274 272 267 263 259 256 255 253 253 252 250 251 252 252 253 254 255 257 257 255 249 249 253 255 258 257 257 259 253 249 246 242 239 237 236 237 236 231 228 230 233 237 235 236 239 229 222
235 232 232 233 234 235 236 236 237 238 239 240 239 237 236 237 238 241 244 246 244 238 230 227 229 232 234 234 234 235 237 239 242 246 250 254 258 262 266 269 272 274 275 277 280 280 278 277 275 273 271 269 265 259 255 252 251 249 248 248 247 247 248 250 251 251 252 253 255 257 253 251 252 252 254 254 255 258 256 252 248 244 241 240 240 240 239 235 229 227 229 235 237 235 237 232 223
238 235 234 234 234 235 236 236 238 239 239 241 240 238 238 238 240 242 243 244 241 235 226 222 221 221 224 227 226 226 232 238 242 246 250 254 259 263 267 271 274 276 277 280 283 283 280 276 273 271 268 266 262 258 254 248 246 244 242 243 244 245 246 248 250 253 252 250 250 252 254 254 254 255 256 256 257 260 259 255 251 246 243 242 241 241 240 237 233 227 227 232 237 237 238 237 227
242 239 237 236 234 235 237 238 240 241 241 242 241 241 241 241 241 242 243 243 242 237 225 217 218 221 224 228 226 225 231 238 242 246 250 255 260 265 269 273 275 277 280 283 285 284 279 273 270 269 266 264 259 255 251 245 242 240 238 238 240 243 244 245 247 251 251 250 250 251 254 255 255 256 257 258 259 258 257 254 252 250 248 245 243 242 241 239 237 231 227 230 235 238 240 239 228
244 242 239 238 237 237 240 240 242 243 243 244 243 243 244 243 243 243 243 243 241 235 225 219 218 222 225 228 232 234 237 241 243 246 251 256 262 266 270 274 278 281 284 286 284 283 279 271 268 268 266 262 258 253 248 244 240 238 236 237 239 241 243 243 243 245 247 248 250 251 253 254 255 255 255 258 257 256 256 255 256 255 253 250 247 245 244 242 241 237 232 231 235 240 243 239 226
244 243 241 241 240 241 243 242 243 244 245 246 245 245 246 245 245 244 243 242 239 234 229 225 220 221 223 224 230 237 240 242 244 247 252 257 262 267 272 277 282 286 287 286 282 281 277 269 268 269 265 260 255 251 246 243 240 238 236 237 239 240 242 243 243 244 246 247 248 251 251 251 253 254 255 256 256 256 258 259 260 259 257 255 253 251 250 247 244 242 237 234 235 240 244 240 228
243 244 243 242 242 243 244 244 244 245 246 247 246 247 247 247 247 245 243 242 240 236 230 227 223 225 226 225 229 235 237 239 242 246 252 257 262 268 275 281 286 288 287 283 280 278 272 265 267 269 267 260 254 250 246 242 240 238 236 236 238 239 241 243 244 245 247 248 250 255 256 253 253 253 254 256 257 259 261 263 264 264 263 262 260 256 253 252 248 243 241 238 236 238 241 238 230
243 243 243 242 242 243 244 244 245 246 247 248 248 248 247 247 246 243 241 240 240 238 232 228 226 227 229 228 229 231 232 236 240 246 251 257 264 271 278 283 285 285 284 280 277 274 267 262 264 267 266 260 253 248 243 241 239 237 237 237 237 238 240 243 244 246 249 252 255 259 259 258 258 257 256 257 258 260 263 267 268 268 267 265 263 261 259 256 251 245 240 238 236 236 239 240 231
241 241 240 240 241 242 242 242 244 246 247 247 247 248 248 246 245 242 239 238 237 236 233 230 229 228 228 227 226 228 231 236 242 247 253 259 267 274 278 280 281 281 281 278 274 269 264 261 262 263 263 257 251 246 241 239 237 237 237 237 237 238 240 243 246 247 250 254 257 259 259 260 262 262 261 260 260 263 266 268 268 268 268 267 266 267 269 262 255 250 241 237 236 234 236 240 234
239 237 236 236 238 240 240 240 242 244 245 245 245 248 249 245 243 242 239 237 235 235 234 231 230 229 228 228 228 231 235 241 246 251 257 264 271 274 275 275 274 276 277 275 270 266 262 260 259 259 258 255 250 245 241 238 236 236 237 237 238 239 241 245 248 250 251 254 256 258 260 261 262 265 267 266 264 265 266 266 267 268 270 271 270 267 268 264 260 259 250 242 241 237 234 237 236
236 233 232 232 237 240 238 238 240 242 243 243 242 242 244 242 239 238 236 236 236 236 236 233 231 230 230 232 234 236 240 245 250 256 262 268 271 272 272 270 269 270 270 269 266 264 262 261 261 259 256 254 250 247 243 239 237 236 236 237 238 240 243 246 248 251 253 254 255 257 260 262 264 267 270 269 266 265 266 266 267 269 271 272 271 268 267 267 266 264 259 251 247 243 238 237 240
234 231 231 229 235 241 236 235 238 239 240 240 236 224 228 237 235 235 234 233 235 236 237 236 234 234 234 236 238 241 244 248 255 261 266 269 269 270 269 266 265 267 266 265 264 263 263 262 262 261 258 255 251 249 246 243 239 237 236 237 238 241 244 247 250 251 253 256 256 257 259 262 265 266 267 269 268 267 267 267 267 268 270 270 270 271 270 268 265 263 260 257 252 248 244 241 241
232 229 231 225 228 239 237 234 236 238 238 239 234 219 225 240 235 236 236 233 234 236 238 240 240 240 240 241 243 245 248 253 259 264 268 269 269 269 268 265 264 266 266 264 264 263 262 261 260 260 260 258 254 251 248 246 243 240 239 239 241 244 247 249 251 253 254 256 258 259 260 262 264 264 264 267 269 268 266 265 266 266 266 267 268 268 267 266 264 262 260 258 255 252 248 245 244
233 229 232 225 225 237 240 237 236 239 239 239 234 218 228 244 237 238 240 237 237 238 240 242 244 245 245 246 247 250 254 258 262 266 269 269 269 269 268 265 263 266 267 266 265 264 263 261 260 259 259 260 258 255 251 248 245 243 242 242 244 247 249 251 253 255 256 257 257 258 259 261 263 264 265 266 267 267 266 265 264 263 262 263 265 265 264 263 263 262 260 259 256 254 251 248 247
235 233 233 229 227 229 234 236 236 237 238 239 236 228 238 249 243 240 241 241 241 240 241 243 245 247 248 249 252 255 258 261 265 268 270 269 268 268 268 266 263 265 268 268 267 266 266 265 264 260 257 257 258 258 256 252 249 246 245 246 247 249 251 253 255 257 258 259 258 258 258 259 261 264 266 267 267 266 266 265 264 263 262 262 263 263 262 261 259 259 259 258 256 254 253 251 247
236 234 233 232 229 222 227 236 236 236 238 241 240 238 244 249 246 245 245 245 245 244 244 245 247 249 250 252 254 257 260 264 266 267 267 267 267 267 266 265 263 264 267 269 268 269 269 269 268 263 257 253 254 256 257 256 254 251 250 250 250 251 253 255 256 257 258 259 259 259 258 259 261 262 264 266 266 266 265 264 264 263 264 264 263 262 261 260 257 256 256 256 255 254 254 254 250
238 237 234 233 229 226 231 236 236 235 238 243 241 240 245 248 247 247 248 249 250 251 251 251 251 252 253 254 256 259 263 265 265 265 265 266 268 267 266 265 265 266 268 270 270 271 271 271 270 267 261 255 251 252 254 255 255 254 254 253 254 255 255 256 257 257 258 258 259 259 258 259 260 262 263 265 266 266 265 264 264 264 265 265 264 262 260 259 257 254 255 255 254 254 254 254 253
241 237 233 230 229 232 235 233 234 233 235 244 243 242 248 249 249 248 247 249 251 253 254 255 256 256 258 259 260 263 265 265 265 265 267 269 270 268 267 267 268 268 269 270 272 272 272 272 270 268 266 261 257 255 254 254 254 254 254 254 255 256 256 257 258 258 258 258 259 259 258 258 259 261 263 265 266 266 266 265 265 265 265 265 264 262 260 259 257 254 254 255 254 253 253 253 254
242 235 230 228 228 236 239 234 235 233 232 244 246 246 251 252 254 255 251 248 248 250 252 253 255 256 259 261 263 264 265 265 266 269 270 270 269 266 265 266 267 267 269 272 273 274 274 273 270 267 266 265 264 262 261 258 257 255 254 254 254 255 255 256 257 258 259 259 259 259 259 259 259 261 263 264 266 267 266 266 265 264 264 264 263 262 260 259 258 256 254 254 253 252 253 254 254
243 238 234 234 234 240 246 243 241 237 236 245 248 247 253 256 258 261 258 252 247 247 248 250 252 255 258 260 262 264 265 266 267 269 269 266 261 260 261 262 265 268 270 273 274 274 274 274 272 268 266 266 266 265 265 264 262 259 257 256 255 256 256 256 257 258 259 259 259 259 260 260 261 262 263 264 266 267 267 266 265 264 262 262 262 261 260 259 259 257 254 253 254 253 253 254 254
246 244 241 242 242 244 250 251 248 246 245 250 253 253 258 261 260 260 259 253 246 245 246 248 250 252 255 257 260 262 264 265 266 266 265 263 259 257 258 260 263 267 270 272 273 273 274 274 273 271 269 267 266 265 266 266 264 263 261 260 259 258 258 258 258 258 258 259 259 259 259 260 262 263 264 265 266 266 267 266 264 263 261 260 260 259 258 257 257 256 254 253 253 254 254 254 253
250 247 246 247 248 245 248 252 253 253 254 255 256 258 263 264 261 260 259 254 247 244 244 247 248 249 252 255 257 260 261 262 263 264 264 263 260 256 255 259 263 266 270 273 274 274 275 276 275 275 273 270 267 266 266 266 265 264 263 262 261 260 259 258 257 257 258 258 259 260 261 262 264 265 266 266 266 267 267 266 265 263 260 259 258 258 257 256 255 256 254 252 252 252 253 253 253
251 249 247 248 249 247 248 252 255 258 260 259 257 257 261 263 260 259 260 259 254 247 244 246 247 248 251 254 256 258 261 261 261 261 261 260 258 256 256 261 264 267 271 274 275 275 277 279 279 279 277 272 269 268 267 266 265 265 263 261 260 259 258 257 256 256 257 258 261 263 264 265 266 267 268 268 268 268 268 267 266 263 260 258 257 257 257 256 255 255 254 252 251 251 251 250 253
253 251 247 246 248 250 250 253 256 258 258 258 257 253 253 260 262 260 258 259 258 253 249 247 248 249 250 252 254 256 258 259 259 258 257 256 255 255 257 262 266 269 270 273 276 276 278 280 282 283 280 274 270 269 269 267 266 264 261 258 257 256 256 257 257 258 259 260 263 265 266 267 267 268 269 270 269 268 268 268 266 264 262 259 257 256 257 257 256 256 255 252 250 251 251 250 252
251 252 250 248 249 251 252 254 255 256 256 257 259 256 252 255 261 261 257 256 257 256 252 250 249 249 250 252 253 254 255 256 256 255 254 254 254 254 255 259 265 269 270 273 276 277 278 281 284 285 281 276 274 273 272 270 267 264 260 257 255 254 255 257 259 261 262 263 265 266 266 267 267 268 269 270 270 269 268 267 265 264 262 260 258 257 256 256 256 256 256 254 252 251 252 251 251
253 255 253 251 251 252 254 255 256 258 259 260 261 260 257 255 257 260 259 256 257 258 255 253 252 251 251 251 252 253 254 254 254 252 251 252 254 254 254 257 262 267 270 272 273 275 277 280 281 280 278 277 276 276 275 273 269 266 263 259 257 255 255 257 259 261 262 263 264 265 265 266 267 268 269 270 270 269 268 266 264 262 260 259 258 257 257 256 255 256 256 255 253 252 254 254 253
251 255 257 255 255 254 254 255 256 258 259 259 260 261 260 258 258 260 260 257 257 259 258 255 254 254 253 253 252 252 252 252 252 251 250 252 253 253 253 255 259 264 267 268 269 272 275 277 276 275 274 276 277 277 276 273 271 269 266 262 259 258 258 258 259 261 262 262 263 263 264 265 266 267 269 270 270 269 267 265 263 261 259 258 258 257 257 256 255 254 255 254 252 251 252 253 253
252 257 262 263 263 262 260 259 258 260 263 263 261 260 259 259 259 261 261 258 255 258 260 258 256 256 256 256 256 255 254 254 253 252 252 253 253 251 252 254 257 261 264 265 266 269 272 273 272 273 274 277 278 277 276 273 271 269 266 264 262 260 259 260 261 262 263 263 262 263 263 263 264 266 267 269 269 269 268 265 261 259 258 257 257 257 257 257 256 254 254 254 253 251 251 252 253
258 260 261 262 265 267 266 264 263 263 266 265 261 259 260 261 260 260 261 260 255 255 257 258 258 258 258 258 258 259 259 258 257 256 255 255 253 252 254 257 258 257 256 258 260 262 266 268 270 274 276 278 279 278 276 273 271 268 266 265 263 262 261 261 262 263 264 264 264 264 263 262 262 263 264 266 267 268 267 265 262 259 257 257 257 258 258 258 257 256 255 254 253 252 251 252 252
262 260 258 258 261 263 263 263 264 265 265 263 263 264 265 263 260 260 260 257 254 254 255 257 258 259 259 260 260 261 261 261 260 260 259 257 256 256 257 257 254 247 243 245 249 254 260 265 269 272 275 277 279 279 277 274 271 268 265 264 263 262 262 262 262 263 263 264 265 265 264 263 261 261 262 263 265 266 265 264 262 259 256 256 257 259 260 260 260 259 257 255 255 254 253 253 252
262 258 256 257 257 258 265 267 265 267 269 267 265 265 265 266 265 263 261 255 252 251 252 254 255 256 258 259 260 261 260 260 259 258 257 256 254 252 250 248 244 238 235 238 243 249 256 262 267 271 273 274 275 276 277 275 272 268 264 262 262 262 263 263 263 263 263 264 265 266 266 265 264 262 262 264 265 266 266 265 263 260 257 254 255 257 259 260 261 261 260 257 256 255 255 255 253
258 255 254 255 255 257 264 267 263 264 267 265 263 263 265 266 266 265 262 258 253 248 247 249 251 252 254 255 256 257 257 256 255 252 248 246 244 242 240 237 234 232 234 239 244 249 255 260 265 269 271 273 273 275 276 274 272 270 267 265 264 263 263 263 263 263 263 263 264 266 267 267 268 266 265 266 267 268 269 268 266 263 260 256 253 253 255 256 258 258 258 256 255 255 256 256 255
256 256 256 255 257 258 261 263 263 263 263 263 265 266 266 265 265 266 266 262 257 250 246 246 249 251 253 255 254 253 253 254 253 248 241 238 237 239 239 237 235 235 238 243 248 252 256 260 263 266 270 272 273 274 275 274 273 272 272 270 268 266 264 262 262 261 261 262 263 264 266 267 268 268 268 267 268 270 272 272 271 269 265 261 257 254 253 253 254 255 254 253 252 252 253 255 257
256 258 260 259 258 259 261 265 267 265 265 267 267 266 266 266 265 265 266 264 259 252 246 244 246 250 253 256 257 255 254 253 253 251 246 241 239 242 245 245 244 242 243 248 253 255 256 258 259 261 265 268 269 270 271 273 274 274 273 271 269 267 266 264 262 261 260 261 261 262 264 266 267 268 268 268 267 268 270 271 272 272 270 267 264 261 258 255 254 253 253 253 251 250 249 251 253
258 258 262 264 265 265 265 267 268 268 269 271 271 269 266 264 266 266 263 261 258 253 250 247 246 248 251 254 256 257 257 255 253 250 247 244 241 240 243 248 248 246 244 247 251 255 257 258 258 258 259 263 265 267 268 269 270 271 272 271 270 268 267 265 262 260 260 260 260 261 263 265 267 269 269 269 267 266 266 266 267 268 269 268 267 265 263 261 257 255 253 252 252 251 250 250 250
262 260 258 258 261 264 265 267 269 273 275 275 276 276 272 266 265 266 263 260 257 254 252 250 248 247 249 251 252 253 255 254 252 246 243 246 246 242 238 238 238 237 238 243 248 252 254 254 255 255 256 259 262 263 264 264 264 266 268 270 270 269 266 262 258 257 258 258 258 259 262 265 268 270 272 272 271 269 267 264 263 262 263 264 264 264 263 263 261 259 257 255 253 253 252 253 253
265 267 266 262 259 259 260 263 266 269 272 272 273 276 277 273 267 264 263 261 258 255 251 248 246 244 244 246 248 249 249 248 247 243 240 243 246 242 236 234 233 232 236 241 246 249 249 248 246 247 250 253 256 257 257 259 261 262 264 266 267 267 264 258 255 256 258 259 258 258 261 265 268 271 273 274 274 274 272 269 266 263 261 260 260 260 259 259 259 259 259 258 257 256 256 256 257
263 267 271 271 269 266 263 262 261 262 264 267 269 269 270 270 269 266 264 261 258 256 251 246 245 244 242 243 245 245 244 240 237 236 235 236 240 242 241 242 245 245 245 246 248 251 252 249 244 245 253 254 248 250 253 255 257 260 262 264 264 263 261 259 258 258 257 257 259 261 262 265 267 269 270 272 272 272 271 271 270 267 265 263 261 260 259 257 257 256 257 257 257 257 258 257 257
265 263 263 265 267 267 267 266 265 264 264 265 267 267 266 267 269 267 266 264 261 258 254 249 246 244 242 241 242 243 242 239 233 230 229 228 230 238 245 249 254 256 254 253 255 257 257 254 251 256 266 264 254 252 252 251 254 258 259 262 263 263 261 260 261 262 260 258 258 261 264 266 267 266 266 266 266 266 266 268 270 270 269 268 266 265 263 260 258 256 255 255 255 255 256 256 256